Home > Weather > Herzogenrath > Past weeks

Flag for Germany Past Weather in Herzogenrath, North Rhine-Westphalia, Germany — Yesterday and Last 2 Weeks

Now
52 °F

Clear.


Feels Like: 52 °F
Forecast: 49 / 77 °F
Wind: No wind

Location: Geilenkirchen Airport

Current Time: Aug 30, 2016 at 5:25:29 AM

Latest Report: Aug 30, 2016 at 4:50 AM


Visibility: 10 mi

Pressure: 30.27 "Hg

Humidity: 100%

Dew Point: 52 °F

Location of HerzogenrathLocation

Past Weather in Herzogenrath — Graph

°F

Herzogenrath Temperature Yesterday

Maximum temperature yesterday: 70 °F (at 3:50 PM)
Minimum temperature yesterday: 61 °F (at 11:50 PM)
Average temperature yesterday: 65 °F

High & Low Weather Summary for the Past Weeks

 TemperatureHumidityPressure
High95 °F (Aug 25, 4:50 PM)100% (Aug 16, 6:50 AM)30.36 "Hg (Aug 16, 6:50 AM)
Low48 °F (Aug 16, 6:50 AM)30% (Aug 25, 4:50 PM)29.80 "Hg (Aug 18, 5:50 AM)
Average69 °F70%30.07 "Hg
* Reported Aug 15 7:50 PM — Aug 30 3:50 AM, Herzogenrath, Weather by CustomWeather, © 2016

Note: Actual official high and low records may vary slightly from our data, if they occured in-between our weather recording intervals... More about our weather records

Advertising

Herzogenrath Weather History for the Previous 24 Hours

Scroll right to see more
 ConditionsComfort  
Time TempWeatherWind HumidityBarometerVisibility
3:50 AM
Tue, Aug 30
54 °FClear.No wind94%30.27 "Hg10 mi
2:50 AM55 °FClear.1 mph94%30.27 "Hg10 mi
1:50 AM59 °FClear.2 mph94%30.27 "Hg10 mi
12:50 AM59 °FClear.No wind88%30.27 "Hg10 mi
11:50 PM
Mon, Aug 29
61 °FClear.2 mph88%30.27 "Hg10 mi
10:50 PM63 °FPartly cloudy.2 mph88%30.24 "HgN/A
9:50 PM63 °FPassing clouds.No wind88%30.21 "HgN/A
8:50 PM66 °FScattered clouds.1 mph83%30.21 "HgN/A
7:50 PM66 °FPartly sunny.3 mph83%30.18 "HgN/A
6:50 PM68 °FPassing clouds.6 mph78%30.18 "HgN/A
5:50 PM68 °FScattered clouds.8 mph78%30.15 "HgN/A
4:50 PM70 °FPartly sunny.7 mph73%30.15 "HgN/A
3:50 PM70 °FPartly sunny.5 mph69%30.15 "HgN/A
2:50 PM66 °FPartly sunny.5 mph83%30.15 "HgN/A
1:50 PM64 °FBroken clouds.6 mph88%30.15 "HgN/A
12:50 PM63 °FBroken clouds.3 mph88%30.12 "HgN/A
11:50 AM63 °FDrizzle. Cloudy.7 mph94%30.12 "Hg1 mi
10:50 AM66 °FLight rain. Broken clouds.13 mph78%30.09 "Hg6 mi
9:50 AM66 °FPartly sunny.10 mph73%30.09 "HgN/A
8:50 AM64 °FPartly sunny.12 mph83%30.09 "HgN/A
7:50 AM64 °FPartly sunny.13 mph78%30.07 "HgN/A
6:50 AM64 °FPassing clouds.7 mph78%30.04 "HgN/A
5:50 AM64 °FClear.7 mph78%30.04 "Hg10 mi
Weather by CustomWeather, © 2016

See weather overviewHow to use our weather pages